Location: Bamobli
(6.6379°N, 10.9396°W)
Time: 17:15:04
(UTC+00:00)

SL-16 R/B - Pass Details

Date: 07 June 2020
Orbit: 840 x 850 km, 71.0° (Epoch: 04 July)

Event Time Altitude Azimuth Distance (km) Brightness Sun altitude
Exits shadow 05:34:38 14° 218° (SW) 2,184 3.8 -12.9°
Maximum altitude 05:39:11 44° 286° (WNW) 1,141 2.6 -11.9°
Drops below altitude 10° 05:44:31 10° 358° (N) 2,449 4.9 -10.7°
Sets 05:47:04 0° 4° (N) 3,384 5.8 -10.1°
